Погода в Обояни

Погода в Обояни : погода сейчас, прогноз погоды и архив. Всё, что Вы хотите узнать о погоде в Обояни!

Хотите узнать прогноз погоды в Обояни? Тогда Вам сюда: Погода в Обояни

Поиск расширенной информации на нашем сайте:

Другие новости

Новости СМИ2

Главная страница сайта

Новости сайта

02.10.2013

Напоминаем, что на нашем новом сайте вы можете получить высокодетализированные прогнозы погоды по пунктам России, СНГ и мира (включающие важные для авиации метеовеличины, такие как направление и скорость ветра, видимость, явления погоды, количество и форма облачности, нижняя и верхняя граница облачности), а также ознакомиться с разнообразными материалами по авиационной метеорологии и подборкой полезных ссылок на эту тему.

Сайт Метеоцентр.Азия посвящён разработке технологий оптимизации авиаметеорологического обслуживания, включая проектирование и перспективное создание нескольких автоматизированных авиаметеорологических систем:
- система выпуска высокодетальных прогностических карт явлений погоды для нижнего воздушного пространства по России и ближнему зарубежью;
- система верификации прогнозов TAF (выпускаемых синоптиками официальных АМСГ РФ и ближнего зарубежья) и AUTOTAF (выпускаемых сайтом Метеоцентр.Азия) - выявление ошибок, онлайн-сопоставление с фактической погодой METAR, автоматическое внесение коррективов в прогнозы при резком отклонении фактической погоды от прогноза, подсчёт оправдываемости прогнозов по элементам и в целом;
- система обработки, анализа и отображения авиаметеорологической информации для применения провайдерами метеорологической информации.

Рекомендуем: Самая подробная информация Ремонт стига на сайте.

Погода в Обояни - сегодня

Время (UTC), дата Ветер
(°,м/с) 
Видим.   Явления Облачность Т
(°С)
Тd
(°С)
f(%) Тe
(°С)
Pmin
(гПа)
dP
(гПа)
Po
(мм)
O2
(г/м3)
Тmin Tmax R s Состояние
почвы
00 25.04.17 260 (З) 10 км    ясно 
-0.2 -5 70 1017.1  1.8  745  301           
03 25.04.17 250 (З) 10 км    ясно 
-1.9 -4.7 81 -1  1019  1.7  746  303  -2.2         
06 25.04.17 250 (З) 10 км    ясно 
+6.5 -2.9 51 +7  1020.1  1.9  747  294  -2.2        влажная 
09 25.04.17 250 (З) 10 км    8/8 1000 м 
[Cu hum]
+10 -5.6 33 +10  1020.6  0.7  748  291           
12 25.04.17 230 (ЮЗ) 10 км    8/8 600 м кучево-дожд. 
[Cb calv]
+11.8 -5.7 29 +11  1020.1  -0.3  748  289           
15 25.04.17 230 (ЮЗ) 10 км    9/9 600 м кучево-дожд. 
[Cb calv]
+11 -5.4 31 +11  1020.2  748  290           
18 25.04.17 180 (Ю) 10 км    ясно 
+7.5 -4.4 43 +8  1021.4  0.8  748  294    +12.6       
21 25.04.17 180 (Ю) 10 км    ясно 
+5.7 -3.4 52 +7  1021.7  0.2  749  296           
00 26.04.17 200 (Ю) 10 км    ясно 
+4.9 -0.4 69 +6  1021.7  749  296           
03 26.04.17 190 (Ю) 10 км    ясно 
+4.5 -0.6 69 +4  1022.1  0.3  749  297  +4.2         
06 26.04.17 200 (Ю) 6-11{12}  10 км    4/0 верхняя 
[Ci]
+9.9 -4.4 36 +8  1021.8  0.1  749  292  +4.2        влажная 
09 26.04.17 200 (Ю) 7-13{16}  10 км    3/0 верхняя 
[Ci]
+14.6 -3.2 29 +14  1021.7  0.3  749  287           
12 26.04.17 200 (Ю) 6-14{16}  10 км    3/0 верхняя 
[Ci]
+16.8 -0.2 31 +17  1020.5  -1  748  284           
15 26.04.17 200 (Ю) 5-11{15}  10 км    8/0 верхняя 
[Cs]
+16.4 -3.4 25 +16  1019.9  -0.5  748  285           
18 26.04.17 200 (Ю) 3{12}  10 км    ясно 
+12.2 -2.4 36 +12  1021  0.6  748  289    +17.4       
21 26.04.17 200 (Ю) 3{10}  10 км    ясно 
+10 -1.6 44 +10  1021.6  0.5  749  291           
00 27.04.17 190 (Ю) 10 км    ясно 
+7.4 -1.3 54 +7  1021.9  749  294           
03 27.04.17 180 (Ю) 10 км    3/0 верхняя 
[Ci sp]
+5.3 -2.1 59 +5  1022.2  0.2  749  296  +5.2         
06 27.04.17 180 (Ю) 10 км    8/0 верхняя 
[Ci]
+11.9 -1.8 38 +11  1022  0.3  749  289  +5.2        влажная 
09 27.04.17 210 (ЮЗ) 5-12{13}  10 км    8/0 верхняя 
[Ci]
+18.7 -3.2 22 +19  1020.5  -1  748  283           
12 27.04.17 180 (Ю) 5-11{14}  10 км    9/0 верхняя 
[Cs]
+20.6 -3.4 20 +21  1019.2  -1  748  280           
15 27.04.17 200 (Ю) 5-11{13}  10 км    8/0 верхняя 
[Ci fib]
+20.5 -3.2 20 +21  1018.4  -0.8  747  280           
18 27.04.17 200 (Ю) 3{11}  10 км    ясно 
+15 -3.2 28 +15  1019.4  0.6  747  286    +21       
21 27.04.17 200 (Ю) 10 км    ясно 
+12.4 -0.9 40 +14  1020.2  0.6  748  288           
00 28.04.17 170 (Ю) 10 км    ясно 
+9.2 -1.8 46 +10  1020.5  748  292           
Время (UTC), дата Ветер
(°,м/с) 
Видим.   Явления Облачность Т
(°С)
Тd
(°С)
f(%) Тe
(°С)
Pmin
(гПа)
dP
(гПа)
Po
(мм)
O2
(г/м3)
Тmin Tmax R s Состояние
почвы

Для получения пояснительной информации подведите курсор к названию столбца.

ПОГОДА в Обояни - архив

Всё, что Вы хотите узнать о погоде в Обояни - удобно и подробно!

Выберите нужную дату (начиная с 1 января 2015* года) и нажмите кнопку "Найти".
Будут отображены архивные сводки погоды по пункту Обоянь, начиная с указанной даты.


Отображать данные в формате CSV (для использования в таблицах Excel)


Внимание! Наш архив погоды предназначен исключительно для личного некоммерческого использования в познавательных целях. Если Вам необходимы официальные справки о состоянии погоды (для производственных, юридических, коммерческих и т.п. целей), обращайтесь в органы Росгидромета.

*Примечание: данная дата относится к архиву по метеостанциям СССР (Россия, СНГ, Балтия).
Архив по метеостанциям Зарубежной Европы и Азии (кроме Китая) хранится 10 дней, по другим регионам земного шара (Китай, Африка, Америка, Австралия, Океания) - 1 день.

Обоянь - район местоположения метеостанции


Название, широта, долгота, высота метеостанции:
Обоянь 51.2°ш. 36.3°д. 192 м над ур. моря [Российская Федерация]

Дополнительная информация

В oтличие oт бoльшинства пoгoдных сайтoв мы публикуем пoдрoбную метеoинфoрмацию в детальнoм прoфессиoнальнoм фoрмате.

Характеристики температуры и влажнoсти вoздуха измеряются на высoте 2 м в тени вдали oт зданий и деревьев.
Скoрoсть ветра измеряется на высoте 10 м (на урoвне рoста челoвека скoрoсть ветра ниже в 1.5-2 раза). Если метеoстанция нахoдится в гoрoде или в лесу, тo скoрoсть ветра занижена на 2-4 м/с пo сравнению с oткрытым местoм. Скoрoсть ветра над акватoриями крупных рек и oзёр, а также на вершинах хoлмoв на 2-5 м/с выше, чем в oбычных услoвиях.
Атмoсфернoе давление в разных тoчках местнoсти мoжет значительнo oтличаться oт давления на метеoстанции, в зависимoсти oт услoвий рельефа (при пoдъёме на 10 м давление пoнижается примернo на 1 мм рт.ст.).